Location: Betpouey
(42.8833°N, 0.0333°E)
Time: 21:20:55
(UTC+00:00)

BREEZE-M DEB (TANK) - Pass Details

Date: 01 December 2020
Orbit: 295 x 20372 km, 49.3° (Epoch: 18 January)

Event Time Altitude Azimuth Distance (km) Brightness Sun altitude
Rises 16:46:52 0° 240° (WSW) 3,971 10.2 -4.1°
Reaches altitude 10° 16:50:39 10° 240° (WSW) 2,002 7.6 -4.7°
Maximum altitude 16:54:11 88° 147° (SSE) 358 1.9 -5.3°
Drops below altitude 10° 16:56:13 10° 62° (ENE) 1,164 3.8 -5.7°
Enters shadow 16:56:31 - 62° (ENE) 1,320 4.1 -5.7°
